Time,TemperatureF,DewpointF,PressureIn,WindDirection,WindDirectionDegrees,WindSpeedMPH,WindSpeedGustMPH,Humidity,HourlyPrecipIn,Conditions,Clouds,dailyrainin,SoftwareType,DateUTC
2013-02-18 00:02:00,50.0,38.0,30.28,NNW,342,3.0,8.0,63,0.00,,,0.00,,2013-02-18 05:02:00,
2013-02-18 00:11:00,50.0,38.0,30.28,NNW,342,3.0,8.0,63,0.00,,,0.00,,2013-02-18 05:11:00,
2013-02-18 00:21:00,50.0,39.0,30.27,NNW,339,4.0,7.0,65,0.00,,,0.00,,2013-02-18 05:21:00,
2013-02-18 00:32:00,49.0,37.0,30.27,North,351,6.0,10.0,64,0.00,,,0.00,,2013-02-18 05:32:00,
2013-02-18 00:42:00,49.0,37.0,30.27,North,351,6.0,10.0,64,0.00,,,0.00,,2013-02-18 05:42:00,
2013-02-18 00:52:00,49.0,38.0,30.27,NNW,330,4.0,11.0,65,0.00,,,0.00,,2013-02-18 05:52:00,
2013-02-18 01:02:00,49.0,38.0,30.27,NNW,342,3.0,9.0,65,0.00,,,0.00,,2013-02-18 06:02:00,
2013-02-18 01:11:00,49.0,38.0,30.27,NNW,342,3.0,9.0,65,0.00,,,0.00,,2013-02-18 06:11:00,
2013-02-18 01:21:00,49.0,38.0,30.27,NNW,342,3.0,9.0,65,0.00,,,0.00,,2013-02-18 06:21:00,
2013-02-18 01:32:00,49.0,38.0,30.27,NNW,345,4.0,9.0,65,0.00,,,0.00,,2013-02-18 06:32:00,
2013-02-18 01:42:00,49.0,38.0,30.27,North,350,4.0,9.0,65,0.00,,,0.00,,2013-02-18 06:42:00,
2013-02-18 01:52:00,49.0,38.0,30.27,North,350,4.0,9.0,65,0.00,,,0.00,,2013-02-18 06:52:00,
2013-02-18 02:02:00,49.0,39.0,30.27,North,355,3.0,8.0,67,0.00,,,0.00,,2013-02-18 07:02:00,
2013-02-18 02:11:00,49.0,39.0,30.27,North,355,3.0,8.0,67,0.00,,,0.00,,2013-02-18 07:11:00,
2013-02-18 02:22:00,49.0,38.0,30.26,NNW,341,4.0,8.0,66,0.00,,,0.00,,2013-02-18 07:22:00,
2013-02-18 02:32:00,49.0,38.0,30.25,NNW,335,4.0,7.0,66,0.00,,,0.00,,2013-02-18 07:32:00,
2013-02-18 02:42:00,49.0,38.0,30.25,NNW,335,4.0,7.0,66,0.00,,,0.00,,2013-02-18 07:42:00,
2013-02-18 02:51:00,49.0,38.0,30.25,NNW,346,3.0,8.0,66,0.00,,,0.00,,2013-02-18 07:51:00,
2013-02-18 03:01:00,49.0,38.0,30.24,NNW,347,4.0,7.0,65,0.00,,,0.00,,2013-02-18 08:01:00,
2013-02-18 03:11:00,49.0,38.0,30.24,North,355,4.0,8.0,65,0.00,,,0.00,,2013-02-18 08:11:00,
2013-02-18 03:21:00,49.0,38.0,30.24,North,355,4.0,8.0,65,0.00,,,0.00,,2013-02-18 08:21:00,
2013-02-18 03:32:00,49.0,38.0,30.24,NNW,331,3.0,7.0,65,0.00,,,0.00,,2013-02-18 08:32:00,
2013-02-18 03:42:00,49.0,38.0,30.24,NNW,331,3.0,7.0,65,0.00,,,0.00,,2013-02-18 08:42:00,
2013-02-18 03:52:00,49.0,38.0,30.23,NNW,346,3.0,6.0,66,0.00,,,0.00,,2013-02-18 08:52:00,
2013-02-18 04:03:00,49.0,38.0,30.23,NNW,346,3.0,6.0,66,0.00,,,0.00,,2013-02-18 09:03:00,
2013-02-18 04:11:00,49.0,38.0,30.23,NNW,346,3.0,6.0,66,0.00,,,0.00,,2013-02-18 09:11:00,
2013-02-18 04:22:00,49.0,38.0,30.23,NNW,332,5.0,9.0,65,0.00,,,0.00,,2013-02-18 09:22:00,
2013-02-18 04:32:00,49.0,38.0,30.23,NNW,338,3.0,9.0,66,0.00,,,0.00,,2013-02-18 09:32:00,
2013-02-18 04:42:00,49.0,38.0,30.23,NNW,338,3.0,9.0,66,0.00,,,0.00,,2013-02-18 09:42:00,
2013-02-18 04:52:00,49.0,38.0,30.24,NNW,331,3.0,9.0,66,0.00,,,0.00,,2013-02-18 09:52:00,
2013-02-18 05:01:00,49.0,38.0,30.23,NNW,347,3.0,9.0,66,0.00,,,0.00,,2013-02-18 10:01:00,
2013-02-18 05:11:00,49.0,38.0,30.23,NNW,347,3.0,9.0,66,0.00,,,0.00,,2013-02-18 10:11:00,
2013-02-18 05:22:00,49.0,38.0,30.24,NNW,346,4.0,11.0,65,0.00,,,0.00,,2013-02-18 10:22:00,
2013-02-18 05:32:00,49.0,38.0,30.24,NNW,346,4.0,9.0,65,0.00,,,0.00,,2013-02-18 10:32:00,
2013-02-18 05:42:00,49.0,38.0,30.24,NNW,346,4.0,9.0,65,0.00,,,0.00,,2013-02-18 10:42:00,
2013-02-18 05:52:00,49.0,38.0,30.24,NNW,346,4.0,9.0,65,0.00,,,0.00,,2013-02-18 10:52:00,
2013-02-18 06:02:00,49.0,38.0,30.24,NNW,346,3.0,10.0,65,0.00,,,0.00,,2013-02-18 11:02:00,
2013-02-18 06:11:00,49.0,38.0,30.24,NNW,346,3.0,10.0,65,0.00,,,0.00,,2013-02-18 11:11:00,
2013-02-18 06:22:00,49.0,37.0,30.25,NNW,328,4.0,8.0,64,0.00,,,0.00,,2013-02-18 11:22:00,
2013-02-18 06:32:00,49.0,37.0,30.25,NW,323,3.0,8.0,64,0.00,,,0.00,,2013-02-18 11:32:00,
2013-02-18 06:42:00,49.0,37.0,30.25,NW,323,3.0,8.0,64,0.00,,,0.00,,2013-02-18 11:42:00,
2013-02-18 06:52:00,48.0,36.0,30.25,North,355,2.0,9.0,64,0.00,,,0.00,,2013-02-18 11:52:00,
2013-02-18 07:02:00,48.0,36.0,30.25,NNW,346,2.0,9.0,64,0.00,,,0.00,,2013-02-18 12:02:00,
2013-02-18 07:12:00,48.0,36.0,30.25,NNW,346,2.0,9.0,64,0.00,,,0.00,,2013-02-18 12:12:00,
2013-02-18 07:22:00,48.0,37.0,30.25,NNW,338,4.0,7.0,65,0.00,,,0.00,,2013-02-18 12:22:00,
2013-02-18 07:32:00,48.0,37.0,30.26,NNW,341,3.0,7.0,66,0.00,,,0.00,,2013-02-18 12:32:00,
2013-02-18 07:42:00,48.0,37.0,30.26,NNW,341,3.0,7.0,66,0.00,,,0.00,,2013-02-18 12:42:00,
2013-02-18 07:52:00,48.0,37.0,30.27,NNW,347,1.0,8.0,66,0.00,,,0.00,,2013-02-18 12:52:00,
2013-02-18 08:03:00,48.0,37.0,30.27,North,349,3.0,8.0,66,0.00,,,0.00,,2013-02-18 13:03:00,
2013-02-18 08:12:00,48.0,37.0,30.27,North,349,3.0,8.0,66,0.00,,,0.00,,2013-02-18 13:12:00,
2013-02-18 08:22:00,49.0,39.0,30.27,NNW,346,3.0,9.0,67,0.00,,,0.00,,2013-02-18 13:22:00,
2013-02-18 08:32:00,49.0,39.0,30.27,NW,326,0.0,6.0,67,0.00,,,0.00,,2013-02-18 13:32:00,
2013-02-18 08:42:00,49.0,39.0,30.27,NW,326,0.0,6.0,67,0.00,,,0.00,,2013-02-18 13:42:00,
2013-02-18 08:53:00,50.0,39.0,30.27,NNW,337,3.0,7.0,66,0.00,,,0.00,,2013-02-18 13:53:00,
2013-02-18 09:02:00,51.0,40.0,30.27,NNW,339,2.0,5.0,66,0.00,,,0.00,,2013-02-18 14:02:00,
2013-02-18 09:11:00,51.0,40.0,30.27,NNW,339,2.0,5.0,66,0.00,,,0.00,,2013-02-18 14:11:00,
2013-02-18 09:22:00,53.0,41.0,30.28,NNW,338,3.0,7.0,64,0.00,,,0.00,,2013-02-18 14:22:00,
2013-02-18 09:33:00,58.0,47.0,30.28,North,9,1.0,6.0,67,0.00,,,0.00,,2013-02-18 14:33:00,
2013-02-18 09:42:00,58.0,47.0,30.28,North,9,1.0,6.0,67,0.00,,,0.00,,2013-02-18 14:42:00,
2013-02-18 09:53:00,58.0,47.0,30.28,North,9,1.0,6.0,67,0.00,,,0.00,,2013-02-18 14:53:00,
2013-02-18 10:02:00,63.0,48.0,30.28,East,96,2.0,7.0,57,0.00,,,0.00,,2013-02-18 15:02:00,
2013-02-18 10:12:00,63.0,48.0,30.28,East,96,2.0,7.0,57,0.00,,,0.00,,2013-02-18 15:12:00,
2013-02-18 10:22:00,64.0,48.0,30.29,North,355,3.0,8.0,57,0.00,,,0.00,,2013-02-18 15:22:00,
2013-02-18 10:32:00,64.0,49.0,30.29,East,96,1.0,9.0,58,0.00,,,0.00,,2013-02-18 15:32:00,
2013-02-18 10:42:00,64.0,49.0,30.29,East,96,1.0,9.0,58,0.00,,,0.00,,2013-02-18 15:42:00,
2013-02-18 10:52:00,63.0,48.0,30.29,NE,34,1.0,10.0,57,0.00,,,0.00,,2013-02-18 15:52:00,
2013-02-18 11:03:00,64.0,48.0,30.30,SSE,161,2.0,7.0,56,0.00,,,0.00,,2013-02-18 16:03:00,
2013-02-18 11:12:00,64.0,48.0,30.30,SSE,161,2.0,7.0,56,0.00,,,0.00,,2013-02-18 16:12:00,
2013-02-18 11:22:00,64.0,48.0,30.30,ESE,119,1.0,8.0,56,0.00,,,0.00,,2013-02-18 16:22:00,
2013-02-18 11:33:00,66.0,48.0,30.29,ESE,123,3.0,8.0,52,0.00,,,0.00,,2013-02-18 16:33:00,
2013-02-18 11:42:00,66.0,48.0,30.29,ESE,123,3.0,8.0,52,0.00,,,0.00,,2013-02-18 16:42:00,
2013-02-18 11:52:00,65.0,48.0,30.29,SE,136,1.0,5.0,55,0.00,,,0.00,,2013-02-18 16:52:00,
2013-02-18 12:04:00,66.0,49.0,30.29,SSE,152,3.0,9.0,54,0.00,,,0.00,,2013-02-18 17:04:00,
2013-02-18 12:12:00,66.0,49.0,30.29,SSE,152,3.0,9.0,54,0.00,,,0.00,,2013-02-18 17:12:00,
2013-02-18 12:22:00,67.0,49.0,30.29,SSE,158,3.0,8.0,52,0.00,,,0.00,,2013-02-18 17:22:00,
2013-02-18 12:33:00,66.0,50.0,30.28,NNW,331,2.0,7.0,56,0.00,,,0.00,,2013-02-18 17:33:00,
2013-02-18 12:42:00,66.0,50.0,30.28,NNW,331,2.0,7.0,56,0.00,,,0.00,,2013-02-18 17:42:00,
2013-02-18 12:52:00,66.0,50.0,30.28,SE,125,2.0,5.0,57,0.00,,,0.00,,2013-02-18 17:52:00,
2013-02-18 13:02:00,66.0,50.0,30.27,ESE,121,2.0,9.0,56,0.00,,,0.00,,2013-02-18 18:02:00,
2013-02-18 13:12:00,66.0,50.0,30.27,ESE,121,2.0,9.0,56,0.00,,,0.00,,2013-02-18 18:12:00,
2013-02-18 13:23:00,66.0,50.0,30.27,ESE,123,2.0,7.0,57,0.00,,,0.00,,2013-02-18 18:23:00,
2013-02-18 13:33:00,66.0,52.0,30.26,NE,52,1.0,7.0,60,0.00,,,0.00,,2013-02-18 18:33:00,
2013-02-18 13:42:00,66.0,52.0,30.26,NE,52,1.0,7.0,60,0.00,,,0.00,,2013-02-18 18:42:00,
2013-02-18 13:52:00,66.0,51.0,30.25,NE,53,1.0,7.0,59,0.00,,,0.00,,2013-02-18 18:52:00,
2013-02-18 14:03:00,67.0,52.0,30.24,NNE,24,1.0,9.0,59,0.00,,,0.00,,2013-02-18 19:03:00,
2013-02-18 14:12:00,67.0,52.0,30.24,NNE,24,1.0,9.0,59,0.00,,,0.00,,2013-02-18 19:12:00,
2013-02-18 14:22:00,68.0,52.0,30.24,NE,40,0.0,7.0,57,0.00,,,0.00,,2013-02-18 19:22:00,
2013-02-18 14:33:00,66.0,53.0,30.23,WSW,254,2.0,7.0,62,0.00,,,0.00,,2013-02-18 19:33:00,
2013-02-18 14:42:00,66.0,53.0,30.23,WSW,254,2.0,7.0,62,0.00,,,0.00,,2013-02-18 19:42:00,
2013-02-18 14:52:00,66.0,53.0,30.23,North,355,2.0,9.0,62,0.00,,,0.00,,2013-02-18 19:52:00,
2013-02-18 15:02:00,67.0,54.0,30.22,NNE,27,1.0,8.0,62,0.00,,,0.00,,2013-02-18 20:02:00,
2013-02-18 15:12:00,67.0,54.0,30.22,NNE,27,1.0,8.0,62,0.00,,,0.00,,2013-02-18 20:12:00,
2013-02-18 15:23:00,68.0,53.0,30.22,WNW,285,3.0,9.0,58,0.00,,,0.00,,2013-02-18 20:23:00,
2013-02-18 15:33:00,67.0,53.0,30.21,NNW,339,1.0,9.0,60,0.00,,,0.00,,2013-02-18 20:33:00,
2013-02-18 15:42:00,67.0,53.0,30.21,NNW,339,1.0,9.0,60,0.00,,,0.00,,2013-02-18 20:42:00,
2013-02-18 15:52:00,68.0,54.0,30.21,ENE,75,1.0,8.0,60,0.00,,,0.00,,2013-02-18 20:52:00,
2013-02-18 16:03:00,67.0,52.0,30.21,East,92,1.0,8.0,58,0.00,,,0.00,,2013-02-18 21:03:00,
2013-02-18 16:12:00,67.0,52.0,30.21,East,92,1.0,8.0,58,0.00,,,0.00,,2013-02-18 21:12:00,
2013-02-18 16:22:00,67.0,51.0,30.21,SE,124,3.0,8.0,57,0.00,,,0.00,,2013-02-18 21:22:00,
2013-02-18 16:33:00,67.0,51.0,30.21,SE,124,3.0,8.0,57,0.00,,,0.00,,2013-02-18 21:33:00,
2013-02-18 16:42:00,67.0,51.0,30.21,SE,124,3.0,8.0,57,0.00,,,0.00,,2013-02-18 21:42:00,
2013-02-18 16:52:00,67.0,51.0,30.21,SE,136,1.0,9.0,57,0.00,,,0.00,,2013-02-18 21:52:00,
2013-02-18 17:03:00,67.0,50.0,30.21,SSE,161,2.0,9.0,55,0.00,,,0.00,,2013-02-18 22:03:00,
2013-02-18 17:13:00,67.0,51.0,30.21,ESE,122,0.0,9.0,57,0.00,,,0.00,,2013-02-18 22:13:00,
2013-02-18 17:22:00,67.0,51.0,30.21,ESE,122,0.0,9.0,57,0.00,,,0.00,,2013-02-18 22:22:00,
2013-02-18 17:33:00,67.0,51.0,30.21,SE,133,0.0,7.0,57,0.00,,,0.00,,2013-02-18 22:33:00,
2013-02-18 17:43:00,67.0,51.0,30.21,SE,133,0.0,7.0,57,0.00,,,0.00,,2013-02-18 22:43:00,
2013-02-18 17:52:00,67.0,51.0,30.21,SE,133,0.0,7.0,57,0.00,,,0.00,,2013-02-18 22:52:00,
2013-02-18 18:03:00,67.0,53.0,30.22,East,80,1.0,7.0,61,0.00,,,0.00,,2013-02-18 23:03:00,
2013-02-18 18:12:00,67.0,53.0,30.22,East,80,1.0,7.0,61,0.00,,,0.00,,2013-02-18 23:12:00,
2013-02-18 18:23:00,66.0,52.0,30.21,ESE,113,2.0,8.0,61,0.00,,,0.00,,2013-02-18 23:23:00,
2013-02-18 18:33:00,66.0,52.0,30.21,ESE,113,2.0,8.0,61,0.00,,,0.00,,2013-02-18 23:33:00,
2013-02-18 18:43:00,66.0,52.0,30.21,ESE,113,2.0,8.0,61,0.00,,,0.00,,2013-02-18 23:43:00,
2013-02-18 18:52:00,66.0,53.0,30.21,ESE,105,2.0,9.0,63,0.00,,,0.00,,2013-02-18 23:52:00,
2013-02-18 19:03:00,66.0,53.0,30.21,SSE,148,2.0,11.0,62,0.00,,,0.00,,2013-02-19 00:03:00,
2013-02-18 19:12:00,66.0,53.0,30.21,SSE,148,2.0,11.0,62,0.00,,,0.00,,2013-02-19 00:12:00,
2013-02-18 19:22:00,66.0,53.0,30.21,East,96,3.0,12.0,62,0.00,,,0.00,,2013-02-19 00:22:00,
2013-02-18 19:35:00,66.0,53.0,30.21,SSE,157,2.0,12.0,63,0.00,,,0.00,,2013-02-19 00:35:00,
2013-02-18 19:43:00,66.0,53.0,30.21,SSE,157,2.0,12.0,63,0.00,,,0.00,,2013-02-19 00:43:00,
2013-02-18 19:53:00,66.0,53.0,30.21,South,175,2.0,10.0,64,0.00,,,0.00,,2013-02-19 00:53:00,
2013-02-18 20:03:00,66.0,54.0,30.21,NE,37,1.0,9.0,66,0.00,,,0.00,,2013-02-19 01:03:00,
2013-02-18 20:14:00,66.0,54.0,30.21,NE,37,1.0,9.0,66,0.00,,,0.00,,2013-02-19 01:14:00,
2013-02-18 20:24:00,66.0,54.0,30.21,ESE,108,0.0,10.0,65,0.00,,,0.00,,2013-02-19 01:24:00,
2013-02-18 20:44:00,66.0,54.0,30.21,South,174,3.0,10.0,65,0.00,,,0.00,,2013-02-19 01:44:00,
2013-02-18 21:04:00,67.0,55.0,30.21,SE,133,1.0,8.0,65,0.00,,,0.00,,2013-02-19 02:04:00,
2013-02-18 21:23:00,67.0,55.0,30.20,ESE,108,2.0,10.0,66,0.00,,,0.00,,2013-02-19 02:23:00,
2013-02-18 21:35:00,67.0,55.0,30.20,SE,141,2.0,8.0,66,0.00,,,0.00,,2013-02-19 02:35:00,
2013-02-18 21:43:00,67.0,55.0,30.20,SE,141,2.0,8.0,66,0.00,,,0.00,,2013-02-19 02:43:00,
2013-02-18 21:53:00,67.0,56.0,30.20,SE,142,2.0,8.0,67,0.00,,,0.00,,2013-02-19 02:53:00,
2013-02-18 22:07:00,67.0,56.0,30.20,SE,142,2.0,8.0,67,0.00,,,0.00,,2013-02-19 03:07:00,
2013-02-18 22:24:00,67.0,56.0,30.20,SE,138,2.0,9.0,69,0.00,,,0.00,,2013-02-19 03:24:00,
2013-02-18 22:35:00,67.0,55.0,30.19,SE,136,4.0,10.0,66,0.00,,,0.00,,2013-02-19 03:35:00,
2013-02-18 22:45:00,67.0,55.0,30.19,SE,136,4.0,10.0,66,0.00,,,0.00,,2013-02-19 03:45:00,
2013-02-18 22:53:00,68.0,55.0,30.20,SE,133,3.0,12.0,64,0.00,,,0.00,,2013-02-19 03:53:00,
2013-02-18 23:03:00,68.0,55.0,30.19,ESE,112,2.0,13.0,64,0.00,,,0.00,,2013-02-19 04:03:00,
2013-02-18 23:14:00,68.0,55.0,30.19,ESE,112,2.0,13.0,64,0.00,,,0.00,,2013-02-19 04:14:00,
2013-02-18 23:23:00,68.0,55.0,30.19,SE,126,4.0,12.0,64,0.00,,,0.00,,2013-02-19 04:23:00,
2013-02-18 23:34:00,68.0,56.0,30.19,SE,142,5.0,10.0,66,0.00,,,0.00,,2013-02-19 04:34:00,
2013-02-18 23:43:00,68.0,56.0,30.19,SE,142,5.0,10.0,66,0.00,,,0.00,,2013-02-19 04:43:00,
2013-02-18 23:53:00,68.0,56.0,30.19,SE,142,5.0,10.0,66,0.00,,,0.00,,2013-02-19 04:53:00,